Location: Oberkirch
(48.5323°N, 8.0787°E)
Time: 21:04:07
(UTC+00:00)

Tiros 1 - Pass Details

Date: 22 February 2026
Orbit: 618 x 649 km, 48.4° (Epoch: 7 March)

Event Time Altitude Azimuth Distance (km) Brightness Sun altitude
Rises 06:24:43 0° 220° (SW) 2,918 10.3 -0.5°
Reaches altitude 10° 06:27:13 10° 210° (SSW) 2,007 9.5 -0.1°
Maximum altitude 06:31:19 32° 148° (SSE) 1,083 9.0 0.5°
Drops below altitude 10° 06:35:23 10° 86° (E) 1,998 11.2 1.2°
Sets 06:37:52 0° 76° (ENE) 2,902 11.7 1.6°
